Simultaneous Nadir Overpasses (SNOs) Predictions

Prediction of SNOs between GOES-17 and NPP Satellite Orbit:

Table of predicted SNOs for the next 14.0 days since TLE Epoch: 12/1/2024
Index Date Time (GOES-17) GOES-17 Lat,Lon NPP Lat,Lon Distance(km) Time Diff (sec)
1 12/01/2024 08:04:59 -0.00,-104.70 -0.97,-100.50 479.87 80
2 12/02/2024 20:26:58 -0.01,-104.68 -0.28,-105.81 129.12 80
3 12/03/2024 20:10:56 -0.01,-104.67 0.73,-101.28 386.24 80
4 12/05/2024 08:32:47 0.02,-104.70 0.42,-106.57 213.09 80
5 12/06/2024 08:11:24 0.02,-104.69 -0.59,-102.04 301.77 80
6 12/07/2024 20:33:24 -0.02,-104.65 -0.65,-107.35 307.94 80
7 12/08/2024 20:17:21 -0.02,-104.65 0.37,-102.83 207.55 80
8 12/10/2024 08:39:11 0.03,-104.68 0.82,-108.11 390.61 80
9 12/11/2024 08:17:49 0.03,-104.68 -0.21,-103.58 124.45 80
10 12/12/2024 20:39:48 -0.03,-104.63 -1.00,-108.89 485.95 80
11 12/13/2024 20:23:46 -0.03,-104.63 0.03,-104.37 29.40 80
